DELTA 1 DEB, 10183

Orbit data source: Space-Track

DELTA 1 DEB, 10183 is space debris in LEO originally from a launch on Thu, 14 Jul 1977 UTC launched from the Air Force Eastern Test Range (AFETR). Debris objects in space refer to the collection of defunct objects orbiting the Earth. Examples of debris include non-operational satellites, rocket bodies, and fragments generated from explosions, collisions, or faulty payload assembly.

Loading next visibility...
Identifier
10183, 1977-065M
Orbit
LEO
Country
Flag of USUS
Related business
Manufacturer
Unknown
Mission
Spacecraft
Bus & Motor
Unknown
Mass
Unknown
Launch date (UTC)
1977-07-14 (48 years ago)
Launch vehicle
Unknown
Launch site
Air Force Eastern Test Range (AFETR)
Object type
Payload
Rocket body
Debris
Shape & HBR
Unknown shape, 0.2 m
Radar Cross Section
Medium (>0.1 m² and <1 m²)

Expand to show TLE details & history
Last TLE update: 5 hours ago

TLE from 5 hours ago
0 DELTA 1 DEB
1 10183U 77065M   25298.50099424  .00003754  00000-0  90902-3 0  9999
2 10183  29.2108   0.1136 0473057  90.7587 274.7198 14.00236115377660
Epoch: 2025-10-25T12:01Z
TLE epoch observation values (Epoch: 2025-10-25T12:01:25.902Z)
Latitude
-0.00001°
Longitude
145.62502°
Altitude
879.323 km
Speed
7.421 km/s
True Right ascension
00h 00m 27s
True Declination
0° 00' 00"
Sunlit
Object was in full shadow at epoch
Visualization orbit readout
Latitude
Unknown
Longitude
Unknown
Altitude
Unknown
Speed
Unknown
Apparent Right ascension
Unknown
Apparent Declination
Unknown
Sunlit
N/A
Visualization observer readout
Local Sidereal Time
12:37:22
Azimuth
Unknown
Elevation
Unknown
Doppler factor
Unknown
Orbital elements
Apogee altitude
1,241.04 km
Perigee altitude
552.74 km
Semi-major axis
7,275.027 km
Eccentricity
0.04731
Inclination
29.2108°
RAAN
0.1136°
Arg. of periapsis
90.7587°
True anomaly
269.29904°
Mean anomaly
274.7198°
Eccentric anomaly
272.01105°
Mean motion
3.49777 °/min
Orbital period
102.92 mins
BSTAR
0.00090902
Loading maneuver chart data...
Computing Atmospheric mass density...

Documentation

Showing up to 5 results
|